Gering, NE (69341)

10:55 PM MST on February 13, 2016 (GMT -0700)
Meadows | | Change Station
CLOSE
Current Station
Personal Weather Station
Location: Gering, NE
Elevation: 3999 ft
Nearby Weather Stations

Elev 3999 ft 41.82 °N, 103.68 °W | Updated 10 minutes ago

Clear
Clear
36.9 °F
Feels Like 35 °F
N
3.2
Wind Variable Wind from WNW

Today
High -- | Low -- °F
--% Chance of Precip.
Yesterday
High -- | Low -- °F
Precip. -- in
Pressure 30.09 in
Visibility 10.0 miles
Clouds Clear
Windchill 35 °F
Dew Point 30 °F
Humidity 75%
Rainfall 0.00 in
Snow Depth Not available.
6:53 AM 5:25 PM
Waxing Crescent, 38% visible
METAR KBFF 140553Z AUTO 30006KT 10SM CLR M01/M02 A3004 RMK AO2 SLP188 60001 T10061022 10144 21006 51010
Pressure 30.09 in
Visibility 10.0 miles
Clouds Clear
Windchill 35 °F
Dew Point 30 °F
Humidity 75%
Rainfall 0.00 in
Snow Depth Not available.
6:53 AM 5:25 PM
Waxing Crescent, 38% visible
METAR KBFF 140553Z AUTO 30006KT 10SM CLR M01/M02 A3004 RMK AO2 SLP188 60001 T10061022 10144 21006 51010

10-Day Weather Forecast

Almanac

Astronomy

Feb. 13, 2016 Rise Set
Actual Time
Civil Twilight
Nautical Twilight
Astronomical Twilight
Moon
Length of Visible Light
Length of Day
Tomorrow will be .
, % of the Moon is Illuminated

Today's Extremes

State Highs State Lows

Community

WunderPhotos

Upload Photos

1,892,751 photos uploaded!

WunderBlog® & News

Nearby

Air Quality

  Air Quality AQ Index Pollutant
Not available.

Snow Depth

Station Depth Elevation

Earthquake Activity

City Distance Mag. Time & Date
Minimum magnitude displayed is 2.5.

Coastal Water Temperatures

Place Temperature

Stations

Nearby Weather Stations

Station Location Temp. Windchill Dew Point Humidity Wind Precip. Elev Updated Type
                   

Watches & Warnings

There are currently no watches in effect.